Voltar ao catálogo

STARLINK-37562

AtivoComunicaçõesVLEO
NORAD 69208·PAYLOAD·🇺🇸 United States

Lançado May 25, 2026 de Cape Canaveral Space Force Station

Loading…

Próximas Passagens (próximas 24 horas)

TLE

AtualizadoSource: CelesTrak SupGP

Época: Sep 14, 2026, 21:37 UTC

1 69208C 26114AC  26257.90118056 -.00029328  00000+0 -86652-3 0  2573
2 69208  53.1567 139.6289 0001337  81.8657 157.0927 15.34404366    19

Acompanhe STARLINK-37562 em tempo real com AllMySat

Download on the App Store